Temp
13 13 13 13 13 13 13 14 15 16 16 18 18 19 20 20 21 21 25 22 22 23 23 24 25 27 27 28 28 29 27 28 31 31 30 29 29 30 29 28 28 27 24 25 25
13 13 13 13 14 14 14 15 16 17 18 19 19 20 20 21 21 25 22 23 23 23 24 27 28 28 28 29 28 27 27 29 29 30 28 29 28 28 28 26 26 24 24 25 25
13 14 14 14 14 15 16 16 17 18 18 19 20 20 21 21 23 24 22 23 23 23 23 26 27 28 28 29 29 29 28 29 29 29 30 28 29 29 28 25 26 24 24 25 25
14 14 15 15 15 16 17 17 18 18 19 20 20 21 21 21 25 23 23 23 23 23 25 27 28 28 28 28 30 28 29 29 28 28 30 28 29 28 28 27 27 25 24 25 24
15 15 16 16 16 17 17 18 19 19 20 20 20 21 21 24 26 23 23 23 23 24 26 27 28 28 28 29 29 28 28 29 28 27 28 29 26 27 26 25 25 24 24 24 24
15 16 16 17 17 18 18 19 19 20 20 21 21 21 21 25 24 24 23 24 24 25 27 27 28 29 28 30 28 30 28 28 27 27 28 27 27 25 25 24 23 23 22 23 23
16 16 17 17 18 18 19 19 20 20 21 21 21 20 24 25 24 24 23 24 24 25 27 27 27 28 29 28 28 29 27 27 27 27 27 27 25 24 25 23 23 22 21 22 22
16 17 17 18 18 19 19 20 20 21 21 21 21 20 25 23 24 23 24 25 24 25 25 25 26 27 27 28 28 27 28 25 27 27 27 26 24 25 25 23 22 22 22 21 21
17 17 17 18 18 19 19 20 21 21 22 22 21 22 26 23 24 25 24 26 25 25 25 26 26 27 27 26 26 26 26 26 26 27 27 25 24 27 24 23 22 22 22 22 20
17 17 18 18 18 19 20 21 21 21 22 21 22 24 25 26 25 25 25 24 26 26 25 25 25 25 25 25 25 27 26 28 28 27 27 24 24 25 23 23 22 23 23 23 21
17 18 18 18 18 19 20 21 21 21 22 24 26 26 26 25 24 24 25 25 25 26 25 25 25 24 26 27 28 29 28 28 30 29 26 25 25 26 25 23 22 22 23 23 23
18 18 18 18 19 19 20 22 22 21 21 25 26 26 25 26 25 26 25 25 25 24 26 26 24 27 29 29 28 28 27 27 28 27 26 25 25 27 27 24 22 22 22 23 23
17 18 18 19 19 20 21 22 21 21 21 25 25 25 25 25 25 26 25 26 26 25 27 26 28 29 28 28 27 27 26 27 28 27 26 24 23 24 26 27 25 23 23 23 23
17 17 18 19 18 22 22 21 20 20 21 24 23 24 24 25 24 27 26 26 26 26 27 27 28 27 26 27 27 26 27 28 27 26 23 25 22 25 27 26 27 26 23 23 23
16 18 18 18 19 22 20 20 20 21 23 24 24 24 26 24 23 23 25 25 23 26 27 27 25 25 25 26 28 26 25 26 25 24 24 25 22 25 28 27 27 27 26 23 23
17 18 18 18 19 20 20 20 21 22 24 25 25 23 24 24 25 23 23 24 25 24 26 26 25 26 26 27 27 24 24 24 24 23 20 24 24 25 27 28 28 27 26 23 22
16 17 18 19 21 19 19 21 22 23 27 25 25 25 24 25 24 24 23 22 23 22 23 25 26 26 27 24 24 23 23 22 21 20 21 27 26 27 29 30 30 27 26 23 21
16 17 18 19 19 19 20 22 21 26 28 27 26 25 24 26 26 26 24 23 24 24 25 25 24 25 25 24 23 22 23 22 23 23 25 24 22 26 29 26 27 25 25 22 20
16 19 19 20 19 19 21 21 25 27 27 26 26 25 25 26 27 26 25 24 26 25 24 25 26 28 26 25 26 23 21 24 23 24 23 25 26 28 29 24 24 23 23 20 20
14 17 20 21 19 20 20 20 24 26 25 25 24 26 26 27 26 26 26 27 25 27 26 26 25 27 25 25 25 25 25 22 21 21 21 24 25 25 28 25 23 22 20 20 19
14 20 17 18 19 20 20 21 23 25 26 24 23 23 23 23 25 26 26 27 27 27 26 26 25 25 21 22 23 21 21 23 23 23 22 23 24 28 28 28 24 22 21 20 19
16 18 18 19 19 21 20 22 21 24 24 23 23 23 23 22 23 23 24 27 27 27 26 26 24 23 22 24 24 24 23 23 22 22 23 24 24 28 28 27 26 24 22 20 19
16 18 19 19 18 20 21 22 23 23 23 22 22 23 23 22 21 23 23 25 25 25 25 25 23 22 23 22 22 22 24 24 24 23 23 23 25 26 26 25 24 23 22 20 19
15 17 20 19 19 18 18 19 20 21 21 19 18 20 20 20 21 20 21 22 17 23 23 22 23 23 21 23 23 21 22 23 23 22 22 23 24 25 24 24 22 22 22 20 20
16 17 16 16 17 18 18 18 18 18 20 20 19 19 18 16 16 15 17 18 19 18 20 21 21 22 23 25 25 25 23 22 22 23 22 24 24 26 26 24 23 22 21 21 20
13 12 13 12 14 15 16 16 17 18 19 18 18 19 17 17 16 14 14 14 14 15 12 14 16 19 21 23 24 24 25 25 23 23 23 23 23 26 25 25 25 23 23 22 21
12 12 11 11 13 13 15 16 16 17 17 18 17 17 16 17 17 16 13 12 12 11 10 10 11 13 15 21 23 22 24 24 25 24 23 22 23 24 24 24 25 23 23 22 21
Height
803 804 804 804 803 803 803 803 803 803 803 803 803 802 802 801 800 799 796 799 798 797 796 795 795 794 792 790 791 790 811 813 799 797 800 795 805 799 800 806 807 812 817 820 825
805 804 804 804 803 804 803 803 803 803 803 803 803 802 802 801 799 795 799 798 798 797 795 793 792 792 792 790 792 798 809 802 791 784 797 798 801 805 808 812 817 820 821 822 823
805 805 804 804 804 804 803 804 804 804 804 804 803 803 802 801 798 795 797 798 797 797 797 796 794 791 793 790 791 791 805 794 793 790 787 799 800 799 807 818 813 820 822 822 823
807 806 805 805 805 805 805 805 805 805 804 804 803 803 802 801 805 796 797 797 797 796 796 794 793 795 796 800 787 802 793 792 794 794 792 800 797 806 804 808 802 809 817 821 822
809 808 807 807 806 806 806 806 806 805 804 804 803 802 801 797 794 795 797 797 796 797 795 793 792 792 798 790 791 798 794 792 794 797 795 794 804 805 807 807 808 812 817 819 821
811 810 809 808 808 807 807 807 806 805 805 804 803 802 801 800 795 795 796 797 797 795 793 793 788 785 791 789 795 786 792 795 798 799 795 801 804 807 806 807 812 815 817 818 820
811 811 810 809 809 808 808 807 806 806 805 804 803 802 797 794 794 795 795 796 796 795 792 791 790 790 785 796 789 790 804 801 800 800 802 801 812 810 799 805 811 814 815 816 818
812 811 810 810 809 809 808 807 806 805 804 803 802 802 794 793 793 794 795 794 795 795 794 793 792 790 790 789 792 801 799 818 793 797 797 805 815 794 793 803 808 809 810 812 814
812 811 811 810 809 808 807 805 805 804 803 802 800 798 792 792 792 792 794 793 793 794 794 793 792 791 793 803 810 804 814 809 804 789 794 805 807 779 789 798 803 803 804 806 810
812 811 811 810 809 807 805 803 803 802 801 800 800 802 793 789 790 791 792 793 792 792 794 794 794 799 800 806 821 806 809 795 795 790 791 802 802 794 793 794 796 796 797 798 801
812 811 811 810 809 807 805 803 804 802 799 791 789 786 787 789 790 791 791 792 791 792 800 793 803 806 795 791 785 786 792 791 776 771 790 795 792 786 784 788 791 789 787 789 791
813 812 811 810 809 808 806 803 803 807 802 784 784 785 787 787 788 787 789 793 792 800 789 796 806 784 773 775 783 786 795 795 780 781 787 791 788 775 769 772 775 778 781 781 785
815 813 812 810 809 808 806 804 804 803 804 780 781 783 785 787 785 781 787 786 789 793 787 792 780 769 778 781 788 790 795 793 790 783 783 791 793 774 758 755 758 763 766 770 774
816 814 812 810 811 807 806 805 805 805 808 788 787 781 783 784 788 777 780 783 784 789 783 781 770 778 782 784 783 798 778 780 788 797 815 786 811 773 755 754 748 747 757 761 766
817 814 813 811 810 807 809 807 806 806 821 783 782 778 776 784 782 784 780 783 791 783 781 782 783 786 787 782 774 787 782 786 790 799 802 794 811 771 742 746 742 738 742 751 756
817 814 813 812 811 810 808 806 806 816 813 782 776 782 783 780 776 782 784 783 778 784 777 775 771 774 775 771 774 780 790 792 794 804 822 792 792 768 754 736 731 728 731 740 749
817 814 812 811 810 810 809 808 817 816 769 779 777 774 779 775 779 778 785 788 790 802 795 778 773 768 766 784 783 787 797 818 825 826 813 761 772 752 724 720 720 727 730 736 744
815 812 809 808 808 808 809 813 826 781 767 760 767 770 779 767 766 767 775 782 773 773 777 781 786 770 762 768 780 787 787 804 810 805 784 769 784 750 717 718 719 723 727 734 743
811 808 806 805 806 809 809 819 794 776 769 772 770 775 771 764 760 762 764 766 759 763 778 768 761 737 745 750 759 775 791 771 786 775 791 763 742 721 711 725 724 726 729 736 740
812 808 801 801 804 807 811 807 786 772 773 776 788 771 771 756 762 762 756 740 749 741 744 744 762 736 745 751 753 758 759 790 791 799 798 759 751 746 716 720 723 728 730 732 735
813 803 801 802 804 804 804 792 783 773 769 782 780 780 777 774 762 755 748 735 731 733 733 739 753 750 756 755 755 767 771 763 762 765 776 769 751 704 709 704 716 720 723 726 729
816 809 803 804 809 795 794 786 783 777 774 775 774 776 776 774 767 759 755 736 726 727 738 729 743 753 749 732 732 737 742 746 761 760 746 743 732 693 694 698 701 710 714 720 725
820 812 804 804 810 798 787 782 777 775 773 776 775 769 764 770 774 757 747 734 734 731 733 730 741 757 747 744 736 737 732 734 737 742 740 744 724 690 692 695 698 703 707 712 718
822 816 801 801 801 804 801 793 788 778 777 780 782 778 774 773 766 759 755 743 749 734 723 725 731 734 740 725 726 739 729 724 729 742 724 728 715 705 703 701 702 702 701 704 710
823 815 816 813 807 803 803 799 795 792 784 778 777 781 781 785 779 779 768 758 746 750 744 734 733 721 713 707 702 701 709 712 716 706 723 704 700 688 691 694 694 692 695 701 705
832 834 831 829 819 813 809 801 797 789 787 784 781 776 777 779 782 781 779 776 772 762 774 762 751 727 713 703 701 701 691 689 697 694 697 702 687 676 679 675 678 686 688 693 695
836 837 837 830 821 817 808 799 796 790 786 783 781 780 775 774 769 771 777 779 780 784 785 785 769 756 733 705 695 698 681 677 677 677 684 697 661 677 676 679 674 676 676 681 686
Wind_Speed
2 1 1 2 2 2 1 1 1 1 2 2 2 3 3 5 5 7 3 3 4 6 5 6 5 4 5 3 3 1 2 4 5 3 5 9 5 4 4 6 5 7 10 11 11
7 4 2 2 1 1 2 2 1 1 2 2 2 3 5 7 10 12 2 2 4 5 7 3 3 5 3 2 3 3 3 4 9 7 7 8 9 7 4 9 5 8 7 9 10
6 5 4 4 3 3 3 2 2 2 2 1 2 4 6 7 9 5 1 2 3 1 6 6 6 7 5 2 4 4 2 4 6 8 3 8 6 7 5 5 9 10 9 7 9
7 6 6 5 4 5 4 4 3 1 1 2 5 7 7 6 2 4 0 2 2 2 5 5 5 5 4 6 3 4 2 4 3 3 1 7 5 3 6 2 7 12 11 8 9
7 6 6 6 6 5 4 3 1 1 2 4 6 8 5 7 3 1 2 4 3 3 6 5 7 7 5 5 3 7 5 1 5 1 4 6 6 4 2 6 8 10 8 8 8
6 5 6 6 6 5 3 2 2 3 4 4 6 8 5 8 2 1 1 2 2 5 5 6 5 5 7 1 5 3 5 3 4 5 3 5 5 6 9 8 7 8 8 8 8
3 4 4 4 5 4 3 3 3 5 5 5 7 8 9 2 1 2 2 2 2 4 5 2 6 5 3 1 5 3 5 4 7 8 5 6 8 11 7 12 12 11 10 9 9
3 2 2 3 4 4 5 5 6 5 5 6 9 7 5 2 3 4 4 4 3 3 3 2 5 7 3 5 3 6 8 4 11 10 5 8 7 18 12 14 13 13 11 9 10
5 4 4 4 5 5 6 6 5 5 6 8 8 8 1 1 3 6 4 4 5 3 2 4 4 3 2 5 5 7 5 13 7 13 6 11 7 3 16 14 13 13 13 12 11
6 6 6 6 7 8 9 6 7 8 8 6 10 6 3 2 6 4 5 4 6 5 4 5 4 4 6 7 6 7 12 9 10 14 14 11 16 5 10 13 15 14 14 13 15
6 6 6 7 7 9 8 7 4 4 9 7 1 7 4 3 4 7 8 7 7 7 7 10 5 8 12 14 14 2 9 10 7 12 10 14 14 15 15 17 15 16 16 15 15
5 5 6 7 7 8 7 6 7 3 8 14 14 8 5 6 4 9 9 7 7 10 12 6 12 14 10 6 12 9 9 10 9 6 5 9 14 15 16 21 22 19 17 16 14
14 9 7 6 8 8 5 5 2 5 5 4 9 10 7 9 6 10 11 6 7 11 13 12 3 11 6 4 6 9 11 9 8 3 6 8 11 20 16 16 17 20 18 16 16
19 13 9 8 6 3 2 0 3 3 4 7 6 6 5 5 5 10 16 5 7 10 13 11 14 7 7 10 11 12 6 9 4 3 4 7 6 12 12 17 19 18 19 17 14
21 16 12 7 8 4 4 3 4 3 5 8 7 5 7 8 7 5 4 4 8 9 7 3 7 7 8 11 9 7 2 2 5 6 8 10 5 5 8 7 14 16 16 17 15
18 16 9 4 6 6 7 6 4 3 6 6 7 7 8 13 8 6 6 5 2 8 15 12 3 6 11 2 3 9 3 2 3 3 7 12 12 8 10 12 7 9 12 13 14
17 14 7 6 3 8 6 5 4 5 2 6 7 8 13 11 12 11 11 11 9 5 10 13 17 4 5 4 1 4 4 3 4 4 7 5 12 15 6 4 3 7 8 10 11
19 14 6 8 5 3 3 3 6 9 11 4 2 10 9 9 14 16 9 15 18 16 6 10 9 17 15 14 9 12 10 6 6 7 10 4 6 5 7 8 5 9 8 10 10
22 11 6 7 7 4 3 7 4 4 11 13 1 8 11 12 8 16 21 19 15 20 11 10 14 8 12 13 13 8 10 12 10 15 8 7 11 10 7 8 8 9 9 10 11
16 11 12 10 8 8 6 12 11 15 20 17 15 12 16 12 13 9 11 10 26 21 22 8 17 8 8 9 11 10 2 4 5 5 8 8 10 6 6 12 11 10 10 9 10
7 4 3 3 7 6 9 11 17 17 15 9 14 18 21 21 23 15 14 10 11 10 22 19 12 2 7 12 15 6 7 8 4 8 4 10 7 6 6 4 14 11 10 10 10
7 3 2 3 5 6 11 18 17 18 19 13 14 17 18 20 23 24 24 18 10 6 13 19 8 15 19 10 20 18 14 21 8 8 9 15 17 7 3 8 9 11 11 10 9
6 4 2 3 6 9 14 21 19 18 15 17 16 15 15 20 21 17 22 19 18 6 7 4 7 14 18 6 3 11 19 18 20 11 21 16 13 4 5 8 9 10 10 11 11
4 4 2 6 7 13 15 15 17 16 16 11 10 14 16 20 20 22 26 18 22 17 15 5 10 14 18 21 8 9 16 21 21 16 25 21 25 12 7 8 9 8 9 11 12
2 2 8 6 10 16 17 19 22 20 19 18 18 16 16 17 18 21 23 18 18 18 15 6 19 22 25 24 20 19 19 26 26 31 21 24 26 22 15 10 12 16 11 10 13
4 4 6 10 14 16 15 15 21 21 19 18 20 18 19 19 16 19 15 13 9 12 15 19 7 22 25 27 28 29 28 20 28 29 26 24 31 19 8 7 5 12 14 15 14
9 5 2 6 10 12 13 16 20 21 16 20 21 21 17 18 15 10 8 11 15 20 26 13 7 13 20 26 26 27 30 28 21 20 21 23 35 7 14 12 15 10 8 8 10
Wind_Direction
63 104 202 258 268 296 314 72 64 56 23 60 62 52 4 320 274 264 289 44 336 309 318 300 269 246 242 184 266 212 281 271 235 208 130 133 135 210 22 115 55 50 49 95 131
68 75 82 94 85 75 88 80 47 53 89 96 51 25 339 314 288 258 134 297 316 330 328 291 208 199 201 198 216 237 241 325 357 62 106 151 160 149 186 118 119 100 101 127 151
59 64 68 81 82 87 85 89 98 104 110 62 12 346 330 312 274 91 90 296 329 325 283 292 300 275 228 276 202 189 276 7 20 45 12 156 183 158 181 177 165 158 144 142 132
59 67 71 74 76 75 79 92 102 98 314 350 340 329 315 289 349 94 310 341 335 9 270 249 244 236 240 214 161 254 258 340 73 6 218 168 126 185 225 30 116 126 143 156 155
54 64 69 69 67 70 68 71 61 292 307 330 337 332 312 230 71 50 87 339 318 279 258 246 241 238 243 216 164 231 127 260 85 200 283 178 140 183 158 90 83 114 146 179 152
48 52 54 55 55 55 45 24 323 301 302 322 331 326 265 269 71 106 286 282 283 264 212 241 309 345 297 274 248 360 112 166 167 201 205 180 176 119 203 147 161 165 188 183 166
48 46 42 33 30 23 10 341 313 296 295 317 320 320 273 318 156 237 236 259 245 282 263 239 302 269 103 114 273 181 164 190 203 183 191 216 210 222 202 168 186 191 194 185 182
314 341 347 357 355 345 332 316 303 288 285 303 307 297 287 163 195 226 220 218 224 226 267 242 247 263 317 91 216 201 231 205 188 181 186 180 257 216 185 175 198 195 199 189 191
282 291 298 309 313 315 304 289 278 274 273 291 296 219 262 130 200 198 211 244 193 207 227 202 245 223 198 203 193 220 244 218 159 190 159 198 273 255 152 184 205 204 209 190 197
270 280 291 300 308 315 311 279 266 266 269 260 265 288 175 250 138 194 191 227 210 181 192 216 227 215 211 208 208 222 212 247 241 191 208 194 243 182 188 199 210 213 212 210 196
277 273 282 297 310 324 330 296 229 206 233 237 194 265 180 114 155 213 185 195 225 217 214 208 214 213 211 217 245 358 298 309 266 146 182 228 242 240 209 209 215 217 217 213 210
338 300 296 299 307 318 311 280 48 357 300 250 241 246 257 198 220 225 172 210 197 212 226 168 237 243 245 239 224 258 270 276 286 160 184 255 257 255 236 211 210 211 215 217 208
6 348 316 300 306 297 262 6 329 357 265 209 220 223 195 206 229 198 181 202 233 228 225 223 229 200 223 203 230 232 246 258 277 92 241 266 278 251 248 242 207 214 210 213 209
6 349 331 310 322 341 279 20 342 334 280 172 196 226 152 224 238 235 182 254 229 239 243 231 240 199 218 237 218 245 273 240 310 303 257 140 284 299 277 225 229 213 203 207 211
3 356 341 319 319 303 1 339 312 252 301 142 142 122 169 189 132 209 183 192 253 228 241 222 163 208 218 224 219 241 83 181 237 257 284 253 255 240 268 203 218 212 203 199 198
356 354 345 329 286 316 327 325 303 252 255 173 145 191 176 213 216 132 194 235 293 263 266 250 45 225 228 230 327 109 149 209 271 246 253 228 228 254 232 231 230 202 191 179 186
341 335 310 277 336 335 330 277 257 241 112 169 204 198 209 202 220 191 194 192 206 195 228 235 227 209 234 140 336 176 176 235 233 192 245 238 219 233 217 290 248 154 164 170 170
328 311 275 240 230 317 278 254 251 273 268 83 209 187 217 214 219 210 220 222 213 235 283 222 228 186 191 208 179 196 192 194 238 229 254 76 235 245 223 133 130 124 142 146 162
331 316 224 251 227 206 241 223 250 237 13 351 357 240 220 242 236 206 221 234 226 202 218 207 242 226 179 197 209 173 216 239 280 278 278 254 261 263 236 160 157 154 154 168 172
326 304 272 192 180 204 225 243 274 302 316 316 299 300 290 272 210 218 228 211 231 232 213 240 267 232 155 188 232 238 148 188 221 244 237 245 241 234 206 180 170 177 181 186 172
306 269 94 130 173 218 231 238 259 266 289 331 300 289 302 308 307 254 243 245 223 223 228 225 245 314 102 206 179 192 213 229 230 215 228 261 252 175 66 56 180 180 183 183 183
318 279 85 158 224 241 245 258 266 279 282 292 281 281 275 283 286 290 293 284 287 239 247 236 222 244 217 201 213 209 210 207 210 215 234 241 246 272 291 186 150 170 175 179 183
317 304 168 235 263 276 298 297 299 286 283 264 262 264 293 297 299 287 288 294 309 240 226 199 238 251 265 181 243 228 225 220 234 263 251 247 257 175 97 152 157 159 163 175 181
300 314 281 205 251 278 285 289 295 306 315 359 343 324 306 296 284 281 284 295 344 312 252 89 231 232 235 235 175 207 216 223 225 233 243 241 259 238 184 171 175 201 193 175 178
268 310 6 301 317 321 322 312 303 293 289 294 299 286 272 278 286 294 308 322 296 310 316 282 246 248 260 266 260 234 210 217 217 230 230 244 246 245 238 228 206 197 195 182 183
337 357 351 307 296 297 290 283 287 293 297 292 280 300 308 297 294 299 306 301 295 328 342 325 291 290 258 255 254 261 259 236 217 228 239 246 260 244 258 257 248 195 202 210 201
354 330 273 275 291 292 284 300 307 311 303 308 316 317 281 284 293 310 245 254 254 271 283 286 299 301 274 264 253 243 245 246 239 224 223 227 240 219 253 238 254 250 197 191 181